Theta_e
315 314 314 316 317 320 324 329 330 330 331 331 332 332 332 332 332 332 332 332 332 331 331 330 329 329 329 328 328 328 328 328 328 328 326 324 323 324 325 325 324 323 321 319 319 319 320 320 321 322 321 319 317 316 316 318 321 325 332 335 336 337 339 341 341 341 338 338 339 333 333 338 339 340 340 340 342 340 336 334 336 338 338 339 341
321 317 315 315 317 319 323 329 330 330 331 331 332 332 332 331 331 332 333 333 332 332 332 332 331 330 329 327 327 327 327 326 327 327 327 327 326 324 323 324 324 323 321 319 318 318 318 319 319 320 321 320 319 317 315 316 319 321 327 333 334 337 339 340 341 342 339 338 334 328 333 338 339 341 341 341 342 340 336 335 337 338 338 340 341
322 321 318 317 317 317 320 327 330 330 330 329 331 330 330 330 329 330 332 333 333 333 332 332 332 331 331 329 328 328 327 327 326 327 328 327 327 326 325 324 323 322 320 319 318 318 318 318 318 319 319 320 320 319 316 314 316 318 325 332 334 335 338 339 340 341 340 338 331 327 334 337 339 341 341 341 341 340 337 337 338 339 339 340 341
321 324 325 324 321 318 317 321 328 330 330 329 330 329 328 328 328 329 330 332 332 332 333 333 333 333 332 331 331 330 330 329 328 328 329 328 327 325 325 326 325 324 322 320 319 318 318 319 319 319 319 319 319 319 317 314 314 315 322 332 335 334 335 338 340 341 341 338 329 328 333 336 339 341 342 341 341 340 337 338 339 339 340 340 340
319 325 329 329 327 325 320 318 324 328 330 329 330 330 328 326 325 326 327 330 331 330 331 332 334 335 334 334 333 332 331 331 330 330 329 328 328 326 324 324 325 326 325 324 322 320 319 319 319 319 319 320 320 318 317 315 313 313 318 328 334 334 334 337 339 340 341 338 330 329 332 335 339 340 342 341 341 340 338 339 339 339 340 340 340
317 323 328 328 327 326 320 318 321 324 328 330 331 331 330 329 326 325 325 326 327 328 329 330 332 333 334 334 334 334 333 332 332 330 330 329 328 328 327 325 324 324 325 325 324 324 322 321 319 319 320 320 319 316 315 314 313 313 314 320 330 335 334 336 339 339 340 339 330 329 333 332 336 339 341 341 341 340 339 339 339 339 339 340 340
315 319 324 325 323 319 314 314 319 323 325 328 331 332 332 331 331 329 328 326 325 325 326 328 329 330 331 331 332 333 333 333 333 331 330 330 330 329 328 328 326 325 325 326 325 325 324 323 320 319 318 318 318 316 313 313 312 312 313 315 323 333 335 335 339 339 339 340 331 328 333 331 333 338 340 341 340 340 339 339 339 338 339 340 339
315 317 319 320 317 313 311 311 315 320 323 325 328 329 331 331 332 332 330 329 329 327 325 325 327 327 329 330 329 331 331 332 332 331 331 330 330 330 329 329 328 327 327 326 327 327 327 327 325 322 319 317 316 315 313 311 311 310 311 313 317 327 334 335 337 340 339 340 334 328 332 330 329 336 339 340 340 339 339 338 338 338 339 340 339
314 315 315 315 313 311 312 311 311 314 318 321 322 322 324 326 328 330 330 330 330 330 328 327 326 325 327 328 328 329 330 330 330 331 331 331 331 331 330 329 327 327 327 327 327 328 330 332 333 332 329 324 318 314 312 310 310 309 309 311 313 320 330 335 336 339 339 340 337 328 331 330 326 332 338 340 339 338 338 338 338 338 340 340 339
313 313 313 312 312 312 311 312 312 311 313 314 316 316 317 318 320 324 328 330 331 330 330 330 329 327 327 327 328 329 330 330 330 329 329 330 331 330 329 328 326 326 326 327 327 327 329 332 334 336 335 334 330 324 319 313 309 309 308 309 311 315 325 333 335 337 338 340 338 327 329 331 327 331 336 338 338 338 337 337 338 338 340 339 339
313 313 313 313 313 313 312 312 312 312 312 312 313 314 314 316 316 318 322 325 329 330 331 330 331 330 328 328 328 328 329 330 330 329 328 329 330 330 329 328 327 325 325 327 327 326 328 330 332 334 335 336 335 334 331 323 315 310 307 308 309 312 324 333 334 337 338 339 337 329 328 331 329 331 334 335 337 338 337 338 339 338 339 340 339
313 313 313 314 313 313 313 313 313 313 313 313 313 314 314 314 315 316 318 321 325 329 330 330 331 329 328 328 328 328 328 329 329 330 329 328 328 329 330 330 328 326 324 325 326 326 326 328 331 333 334 335 336 336 336 333 327 321 313 307 308 310 321 333 334 336 338 337 337 334 328 329 329 330 333 333 335 337 337 338 339 339 339 340 340
310 310 310 310 310 311 311 311 312 312 313 313 313 314 314 314 314 315 316 318 321 325 328 329 329 328 328 328 328 328 327 329 329 328 329 328 327 326 327 329 330 330 328 326 326 327 326 326 329 331 333 334 335 335 336 336 334 333 326 312 308 310 315 329 335 335 338 337 338 336 328 327 329 329 331 333 334 336 337 338 339 339 339 339 340
306 306 306 306 306 307 307 308 308 309 310 311 311 312 312 313 313 314 314 315 317 320 322 324 325 325 326 326 327 328 328 329 329 327 327 327 327 326 325 328 329 330 330 329 328 327 327 326 326 329 331 332 333 334 335 335 335 335 335 322 308 309 312 323 333 335 337 338 337 335 328 327 328 328 329 331 333 334 337 337 338 339 338 339 339
305 304 304 304 305 304 305 305 305 306 306 307 308 309 310 311 312 312 313 314 314 315 316 317 318 319 320 320 322 324 325 327 328 328 328 328 328 328 327 328 328 327 329 330 330 329 328 327 326 327 329 330 331 333 333 334 335 334 336 330 312 309 318 322 328 332 336 338 337 334 329 327 326 327 327 328 332 333 336 337 337 339 338 338 339
304 304 304 304 304 304 304 304 304 304 304 305 305 306 306 307 308 309 310 311 313 314 314 315 315 315 315 316 316 316 317 318 321 322 324 325 326 326 326 327 328 326 326 329 331 330 329 327 327 327 327 329 329 330 332 332 334 333 334 335 320 312 326 330 326 329 333 336 337 334 330 326 324 327 327 327 331 332 334 336 337 338 338 338 339
304 304 304 304 304 304 304 304 304 304 304 304 304 304 304 305 305 305 306 307 308 310 312 313 314 315 315 315 315 315 315 314 315 316 316 317 318 319 320 324 327 324 322 326 329 331 330 327 327 327 327 327 328 328 330 330 331 332 332 335 328 316 323 333 331 329 331 334 337 335 330 325 323 326 327 329 331 331 333 336 337 337 337 337 338
304 304 304 304 304 304 304 305 305 305 305 305 305 305 304 304 304 304 305 305 305 306 307 309 311 313 315 316 317 316 316 315 315 314 314 314 314 314 314 317 322 322 321 323 326 329 330 328 326 326 327 326 326 327 328 329 329 330 330 332 332 323 319 329 335 332 331 332 336 336 331 326 324 325 327 330 333 332 332 335 337 338 337 336 337
304 303 303 303 303 303 303 304 304 304 304 305 305 305 305 305 305 305 305 305 305 305 305 305 306 308 311 314 317 318 318 317 316 315 315 314 314 314 314 314 315 319 320 322 324 325 327 328 326 325 327 326 326 326 325 327 328 329 330 330 332 330 323 323 332 335 333 331 335 336 331 327 324 324 326 330 333 333 332 334 336 337 337 335 336
303 303 302 302 302 302 302 302 302 302 303 303 303 304 304 305 305 305 305 305 305 305 305 304 304 304 305 307 310 314 317 318 318 317 317 316 315 314 314 314 313 315 317 320 322 324 326 327 325 325 327 327 326 326 325 325 327 328 329 329 330 332 329 323 326 333 336 333 333 335 330 327 326 324 326 330 332 334 333 334 336 336 336 335 336
302 302 302 301 301 301 301 301 301 301 301 301 301 302 302 302 303 304 304 304 305 305 305 305 304 304 304 303 304 306 310 314 317 318 319 318 317 317 317 316 314 312 314 316 317 321 325 327 325 324 325 328 327 326 325 324 325 327 327 328 328 330 332 328 323 326 334 335 333 334 331 327 329 327 326 331 333 334 334 334 336 336 336 335 335
301 301 300 300 300 300 300 300 300 300 300 300 300 300 300 300 301 301 301 302 303 303 303 304 304 304 304 303 303 303 303 306 310 314 317 319 319 318 319 319 317 314 313 312 313 316 320 324 325 324 325 326 328 327 325 324 325 326 327 327 327 328 330 331 327 321 326 335 334 333 333 328 330 331 327 331 334 334 334 333 335 335 335 336 334
299 299 299 298 298 298 298 298 298 299 299 299 299 299 299 299 299 299 299 299 300 300 301 301 302 303 303 303 303 302 302 301 303 306 311 316 319 319 320 320 321 319 316 315 313 314 317 321 324 326 326 326 327 328 326 325 324 325 326 326 326 327 327 329 330 324 319 327 334 333 334 330 329 333 330 330 334 333 333 333 334 334 334 336 335
297 297 296 296 296 296 297 296 296 297 297 297 297 297 297 297 297 297 297 298 298 298 299 299 299 300 301 301 302 302 302 301 300 301 304 309 315 318 320 321 322 322 321 320 320 316 316 320 324 326 326 326 327 328 327 325 324 324 325 325 325 325 326 327 329 329 319 318 330 334 334 332 328 332 332 331 333 332 332 332 333 334 334 335 336
295 296 296 295 295 295 295 295 295 295 295 296 296 296 296 296 296 296 296 296 296 297 297 297 298 298 298 299 299 300 300 301 300 300 300 302 307 311 316 319 321 322 323 324 325 323 320 321 323 326 327 326 326 326 327 326 325 324 324 324 325 325 324 325 325 329 325 316 325 335 335 333 328 329 333 331 331 331 331 333 333 333 334 334 335
295 295 295 295 295 295 295 295 295 295 295 295 295 295 295 295 295 295 295 295 295 295 296 296 296 296 297 297 297 298 298 299 300 300 300 299 301 303 307 314 319 321 322 323 325 325 324 323 322 324 326 326 325 325 325 326 325 324 324 323 323 325 324 324 324 326 328 320 321 333 335 333 328 327 332 332 330 330 330 332 332 333 333 333 333
294 294 294 294 294 294 294 294 294 294 295 295 295 295 295 295 295 295 295 295 295 295 295 295 295 296 296 296 296 296 297 297 298 298 299 298 298 299 300 305 312 318 321 322 323 324 325 325 325 323 323 326 326 325 324 325 326 325 324 323 322 324 324 324 323 324 328 324 321 330 335 332 328 326 329 331 330 328 330 330 330 331 333 332 333
294 294 294 294 294 294 294 294 294 294 294 295 295 295 295 295 295 295 295 295 295 295 295 295 295 295 295 295 295 296 296 296 296 296 297 297 297 298 298 299 303 310 316 320 321 323 324 325 326 325 325 325 326 326 325 325 327 326 324 324 322 322 324 324 323 323 325 327 323 327 335 332 328 328 328 329 329 327 329 330 328 330 333 333 333
294 294 294 294 294 294 294 294 294 294 294 295 295 295 295 295 295 295 295 295 295 295 295 295 295 295 295 295 294 294 295 295 296 296 296 296 296 296 297 297 298 301 307 315 319 321 323 324 324 325 326 326 326 326 326 327 327 326 324 324 323 322 323 323 324 323 323 327 326 325 332 333 328 328 329 328 328 327 329 331 329 330 333 334 333
294 294 294 293 294 294 294 294 294 294 294 295 295 295 295 295 295 295 295 295 295 295 295 295 295 295 295 295 294 294 294 294 295 295 295 295 295 295 295 296 296 297 299 305 313 318 321 323 322 323 326 327 327 326 325 327 328 327 325 324 324 323 322 323 323 323 322 325 328 326 328 333 330 327 328 328 327 327 328 330 331 331 333 334 334
294 293 293 293 293 293 293 294 294 294 294 294 294 294 294 294 295 294 295 294 294 294 294 294 294 294 295 295 295 294 294 294 294 295 295 295 295 294 295 295 295 296 296 298 303 311 317 321 322 322 324 327 328 328 326 327 328 327 326 325 324 323 323 323 323 323 323 323 327 329 326 330 332 328 327 328 327 326 325 328 331 331 332 333 333
293 293 293 293 293 293 293 293 294 294 294 294 294 294 294 294 294 295 295 295 295 294 294 294 294 293 293 293 293 293 293 293 293 294 294 295 295 294 294 294 294 295 295 296 297 301 308 316 321 322 322 324 325 327 328 328 328 328 327 325 325 324 323 323 323 323 323 322 325 329 327 327 331 331 328 328 328 325 325 328 330 331 332 332 332
293 292 292 293 293 293 293 293 293 294 294 294 294 294 294 294 295 295 295 295 295 295 295 295 294 294 293 293 292 292 292 293 293 293 293 294 295 295 294 293 294 294 294 295 296 297 300 307 316 321 321 321 321 324 327 329 329 328 328 326 325 325 324 323 323 322 322 322 323 327 329 326 327 332 331 329 330 327 324 326 329 331 332 333 333
292 292 292 292 292 292 293 293 293 293 294 294 294 294 294 295 295 295 295 295 295 295 295 295 295 295 295 294 294 293 292 292 293 293 293 294 294 294 294 294 294 294 294 294 295 296 296 299 307 316 321 320 320 322 323 326 328 328 328 327 325 325 324 323 323 323 322 322 323 325 329 328 325 330 332 330 329 327 323 324 328 331 332 334 334
292 291 291 292 292 293 293 293 293 293 294 294 294 294 294 294 295 295 295 295 295 295 295 295 295 295 295 295 294 293 292 292 292 292 293 293 293 293 294 295 294 294 294 294 295 295 296 297 299 307 317 320 320 321 322 323 325 328 328 327 326 325 324 323 323 324 322 321 324 325 327 329 326 326 331 331 328 325 323 325 328 330 332 333 334
292 291 291 292 292 293 293 294 294 294 293 294 294 294 294 294 294 294 294 294 294 294 295 294 294 294 294 293 292 292 291 292 292 292 293 293 293 293 294 295 295 295 295 295 295 295 295 296 296 300 309 318 320 320 321 322 324 326 328 328 326 326 324 323 323 324 323 321 323 327 328 329 327 325 329 331 327 324 324 326 327 329 332 333 334
291 291 291 292 292 293 294 294 294 293 293 293 293 293 293 293 293 294 294 294 294 294 294 294 294 293 292 292 292 291 291 291 291 292 292 293 293 293 293 294 295 295 295 296 296 295 295 295 296 296 302 312 318 319 321 322 324 325 327 328 326 326 324 323 323 323 324 321 320 326 329 330 328 327 330 331 327 324 325 327 327 329 331 333 335
291 291 291 292 293 294 294 293 293 293 293 293 293 293 293 293 293 293 293 293 294 293 293 293 293 293 293 292 292 291 291 290 290 291 292 293 293 293 293 294 295 295 295 296 297 296 295 295 295 296 298 304 313 318 320 321 323 325 326 328 327 326 324 323 324 324 325 323 319 321 327 329 328 329 330 330 328 325 324 326 328 329 328 331 334
291 291 292 292 293 293 293 292 292 292 292 292 292 292 292 292 293 293 293 293 293 293 293 293 293 293 292 292 291 290 290 289 289 290 291 292 293 293 293 294 294 295 295 296 297 296 296 296 295 296 296 299 308 315 319 322 323 324 326 327 327 326 324 323 323 325 326 325 323 322 326 329 329 329 329 329 328 325 323 327 330 329 327 329 333
291 292 292 292 293 293 292 292 292 292 292 292 292 292 292 292 292 292 292 293 293 293 293 292 292 292 291 291 290 289 288 289 288 289 290 291 292 293 293 293 294 294 295 296 297 296 296 296 295 295 296 297 303 309 316 322 323 323 325 325 325 325 323 323 323 325 327 326 325 324 327 329 330 330 329 328 327 325 324 326 329 329 328 332 334
291 291 292 292 292 292 291 291 292 292 291 291 291 291 291 291 291 292 292 292 292 293 293 292 292 291 290 290 289 288 288 288 288 289 289 290 291 292 293 293 293 294 295 296 296 295 295 296 296 296 296 296 299 304 309 318 322 323 324 324 324 325 323 323 324 324 325 327 327 326 327 328 330 330 329 328 326 325 325 324 326 328 330 334 335
291 291 291 291 291 291 291 291 291 291 291 291 291 290 290 290 290 291 291 292 292 292 292 292 292 291 290 289 288 287 287 287 288 288 289 290 290 291 292 293 294 294 295 295 295 295 295 296 296 297 296 295 298 301 304 313 322 322 323 324 323 324 324 324 325 325 325 327 328 328 327 327 330 330 329 329 326 326 326 324 326 327 329 333 334
290 291 291 291 290 291 291 291 291 291 291 290 290 290 290 290 290 290 291 291 292 291 291 291 291 291 290 289 288 286 284 285 287 287 287 289 290 290 291 292 293 294 294 294 294 295 296 296 296 297 297 295 297 300 303 309 319 322 321 322 322 322 323 324 325 326 326 327 328 329 328 327 329 330 330 329 327 326 326 326 327 327 328 331 331
290 290 290 290 290 290 291 291 291 290 290 290 290 290 290 290 290 290 290 290 291 291 291 292 291 291 291 290 288 285 283 283 284 285 286 287 288 288 289 290 292 293 293 293 294 295 295 295 296 296 296 296 296 299 302 305 313 321 321 320 321 321 320 321 323 325 326 326 326 327 328 328 329 329 329 328 326 324 326 328 327 326 329 332 330
290 290 290 290 290 290 290 291 291 290 290 290 290 290 290 290 290 290 290 290 290 290 290 290 291 291 290 289 288 286 284 282 282 284 285 285 286 287 288 289 291 292 293 293 294 294 295 296 296 296 296 296 296 298 301 302 308 317 321 320 320 320 320 321 322 322 324 324 324 325 326 328 329 329 329 328 326 326 328 329 325 325 330 333 331
290 290 290 290 290 290 290 290 290 290 290 290 289 289 289 289 288 288 289 289 289 289 288 288 288 289 288 287 287 286 284 283 282 282 283 284 285 286 288 288 290 291 293 294 295 295 296 295 295 296 297 296 296 298 300 301 304 310 318 321 319 320 322 321 322 320 321 323 323 324 324 326 328 328 327 328 328 327 327 326 323 324 330 333 332
289 289 290 290 290 290 290 290 290 290 290 290 289 288 288 288 287 287 287 286 286 288 288 288 287 287 287 286 285 285 284 282 282 281 282 284 284 285 287 288 288 290 291 293 295 295 294 294 295 297 297 295 295 298 299 300 302 305 312 321 320 320 322 321 322 320 318 320 322 323 324 324 326 326 326 326 327 325 323 323 323 325 330 332 330
289 289 289 290 290 290 290 290 290 290 290 289 288 288 287 287 287 286 286 285 285 286 287 287 288 286 286 285 284 283 283 281 281 281 281 283 284 285 286 287 288 289 290 292 294 294 293 294 297 297 296 295 295 297 299 299 301 302 307 318 321 320 321 321 322 323 320 319 320 321 322 323 324 324 324 324 324 323 321 322 325 327 330 330 328
289 289 289 289 289 289 290 289 290 290 289 289 288 287 287 286 286 286 286 286 285 285 286 286 287 286 286 285 283 282 282 281 281 281 280 282 284 284 285 286 287 288 289 291 293 294 295 296 297 296 295 296 295 297 299 299 300 300 303 312 319 319 320 321 321 322 322 320 319 321 322 322 322 322 323 323 323 323 322 323 325 327 328 328 326
289 289 289 289 289 289 289 289 289 289 289 288 288 287 286 286 285 285 285 285 285 285 286 286 286 285 285 285 283 282 282 281 281 280 280 282 283 284 284 286 287 288 289 291 293 294 295 296 296 295 295 296 295 296 298 299 300 300 301 307 316 319 318 319 321 321 321 321 320 321 322 322 322 322 323 324 323 323 324 324 325 326 326 326 324
289 289 289 289 289 289 289 289 289 289 288 288 287 287 286 285 284 284 284 284 284 284 285 285 285 284 284 284 283 282 282 281 280 280 279 280 283 284 284 285 286 287 288 289 292 293 295 296 296 296 296 296 295 295 297 299 300 300 301 304 310 317 319 318 320 321 320 321 320 320 322 322 322 322 323 324 324 324 325 324 324 325 325 324 323
Wind_Speed
18 17 16 16 16 18 15 9 9 8 8 8 8 7 7 7 7 7 7 7 7 8 8 7 7 7 7 8 8 8 8 9 9 8 8 9 10 12 14 15 15 14 14 13 13 13 13 13 13 12 12 13 13 13 12 11 12 13 14 15 14 14 14 14 13 12 12 11 10 10 11 10 10 10 11 10 11 14 14 15 16 15 15 16 17
17 17 17 16 16 17 16 12 9 9 9 9 9 9 9 8 8 7 6 7 8 8 9 9 8 8 8 9 9 9 10 10 11 11 10 9 9 10 12 14 14 15 15 15 15 15 15 15 15 15 14 14 14 14 14 12 13 13 15 15 14 13 14 15 14 14 14 13 12 11 11 10 9 9 10 10 12 15 15 15 16 16 16 16 18
14 16 18 18 16 16 15 14 10 10 10 9 10 9 10 9 9 7 7 7 8 8 9 9 10 10 10 10 11 11 12 12 11 12 12 12 11 10 10 11 12 13 15 15 16 16 17 17 17 16 16 16 16 16 15 14 13 14 14 14 14 14 14 14 15 16 15 14 13 12 11 9 9 10 10 12 13 15 15 16 17 17 17 17 18
12 14 17 18 16 15 14 13 11 9 8 8 9 10 11 10 9 8 8 8 8 9 10 10 10 10 10 10 11 13 14 14 13 13 14 14 14 13 12 11 11 11 12 14 16 16 17 17 18 18 18 17 17 17 17 16 14 14 15 14 14 15 14 14 16 17 16 15 14 12 12 10 10 11 11 13 15 16 16 17 17 17 17 17 18
10 11 13 13 14 14 13 11 9 7 6 7 8 9 11 11 11 10 9 8 8 9 11 11 11 10 10 10 10 12 13 14 14 15 15 16 16 14 13 12 12 12 11 11 14 15 16 17 18 18 18 18 18 18 19 18 16 15 16 16 15 15 15 15 16 17 17 17 15 14 13 11 11 11 11 13 16 16 17 17 17 17 17 17 18
7 7 8 8 8 9 10 7 5 4 4 5 7 8 9 10 11 11 11 10 10 10 11 12 12 12 12 13 12 12 13 14 14 15 15 16 16 15 14 14 13 13 12 11 12 13 15 16 17 18 18 18 18 19 20 20 18 16 17 17 17 16 16 15 16 17 17 18 17 16 14 13 12 12 12 14 16 16 17 18 18 18 17 18 18
5 3 4 4 5 7 7 5 3 2 1 2 4 6 7 9 10 10 11 11 12 12 12 12 13 14 14 15 15 15 15 15 15 15 16 16 16 16 16 16 15 14 12 12 13 13 13 14 15 16 17 18 18 19 20 21 19 18 18 18 18 17 16 16 17 17 18 19 19 17 16 15 14 14 15 15 16 16 17 18 18 18 17 18 19
4 3 4 4 5 6 5 4 2 2 3 4 5 6 6 7 9 9 10 11 12 12 12 14 14 15 15 16 16 17 18 18 16 17 17 17 17 17 17 17 17 16 15 13 14 14 14 13 13 14 15 16 17 18 19 20 20 19 19 19 18 19 18 18 18 18 19 20 21 20 18 17 15 16 16 16 17 17 17 18 18 18 18 19 20
5 5 6 6 6 5 4 4 3 3 4 6 7 8 8 8 8 9 9 11 12 12 13 14 15 16 16 17 17 18 19 19 19 18 18 19 19 18 18 18 18 19 18 17 15 15 16 15 14 15 15 15 16 16 17 18 20 20 20 20 19 19 20 19 19 19 20 22 23 22 20 18 17 17 18 18 18 18 18 19 19 20 20 20 21
4 5 5 5 6 5 4 4 4 4 4 5 6 8 9 10 10 10 10 10 10 12 14 15 15 15 17 18 18 19 20 20 19 19 19 20 20 20 20 19 19 21 21 20 18 17 17 17 17 17 17 17 17 17 17 17 18 20 20 21 21 20 21 21 20 20 21 23 25 24 22 19 18 18 19 18 19 19 20 21 21 21 22 22 22
4 3 4 4 5 5 4 4 4 5 5 5 5 6 8 9 10 11 11 12 11 12 13 14 15 15 17 18 19 20 20 21 21 21 21 21 22 23 22 21 20 21 22 22 21 19 18 18 19 18 19 19 19 19 19 19 19 19 20 22 22 21 20 21 21 21 22 25 27 26 24 21 20 20 20 20 19 20 21 22 21 22 23 23 23
7 5 6 6 6 6 6 6 5 5 5 5 6 6 7 7 8 10 11 12 13 13 13 14 15 15 16 17 19 20 21 21 22 22 22 22 23 23 23 23 23 22 22 23 23 22 20 20 20 20 20 21 21 21 20 21 20 20 20 21 23 22 21 22 22 23 25 26 28 28 27 24 22 22 22 21 21 21 23 22 21 22 23 23 24
12 12 12 11 11 11 11 10 9 9 8 7 7 8 8 9 8 9 9 11 13 15 15 16 16 17 18 18 19 20 21 21 21 22 23 23 24 24 25 26 25 24 23 24 24 23 22 22 22 22 22 22 22 22 22 22 21 21 20 20 23 23 23 24 24 25 27 28 29 29 29 27 24 23 23 23 22 22 24 23 22 23 24 25 26
15 16 16 16 17 16 16 16 15 14 13 12 11 9 9 10 10 10 10 11 12 15 16 18 19 19 20 21 21 21 22 22 22 22 23 24 25 25 26 26 26 27 26 25 25 24 24 23 23 23 23 24 24 23 23 23 23 22 21 20 22 24 24 25 26 26 28 29 31 31 31 29 26 25 24 24 24 24 25 24 24 24 25 25 26
17 17 17 17 18 18 19 19 19 19 18 18 16 15 13 12 11 11 11 12 12 13 15 17 19 20 21 22 23 23 24 24 24 24 24 25 25 26 27 27 26 27 28 28 27 25 25 25 24 24 24 25 26 25 25 24 24 24 23 21 22 24 24 25 28 28 27 29 33 34 33 31 28 26 25 25 25 26 26 26 26 25 25 27 28
17 17 17 17 18 18 19 19 19 20 20 20 20 19 18 17 16 14 13 12 12 13 15 16 17 18 20 22 24 25 25 25 26 26 26 26 26 26 27 29 28 28 29 30 29 27 26 26 26 26 25 26 27 27 27 26 25 24 24 23 23 24 25 26 29 29 28 29 34 35 34 33 30 28 27 27 27 27 27 27 28 27 27 28 29
16 16 16 17 18 18 18 18 18 18 18 19 19 20 20 20 19 19 18 16 15 14 14 15 17 17 19 20 22 24 25 26 27 27 28 28 28 29 29 29 30 30 30 31 31 29 28 27 28 28 27 26 27 28 28 28 27 26 26 25 24 25 27 29 30 31 29 30 34 37 36 35 32 31 29 28 29 29 29 29 29 29 30 29 29
15 15 16 17 17 18 18 17 18 18 18 18 18 19 19 19 20 20 19 19 19 18 18 16 16 16 18 19 20 21 23 24 26 27 28 29 30 31 31 31 30 31 31 32 31 31 30 28 28 29 29 28 28 28 29 29 29 28 27 27 26 27 29 31 32 32 31 30 34 38 38 37 34 33 32 30 30 32 30 30 32 32 31 30 30
15 16 17 17 18 19 18 18 18 18 19 19 19 19 18 18 19 19 19 19 19 20 20 20 19 18 17 18 20 21 22 23 24 25 27 28 29 30 31 32 32 31 32 32 32 33 34 31 30 30 31 31 30 29 29 30 30 30 29 29 28 28 30 33 34 33 33 31 33 39 40 39 37 35 34 32 32 33 32 31 33 33 33 32 32
16 17 18 19 20 20 21 21 21 20 20 20 20 20 19 19 19 19 19 19 19 20 20 20 21 20 20 19 19 21 22 23 24 24 25 25 27 28 30 31 32 32 32 32 33 35 36 34 32 31 32 33 33 31 30 30 31 31 30 30 30 30 31 34 36 34 34 33 32 38 42 41 39 38 36 35 34 35 34 33 34 34 33 33 34
17 18 19 20 21 22 22 23 23 23 23 22 22 21 21 20 20 20 20 20 20 20 20 21 21 22 22 22 21 21 21 23 24 25 25 25 26 25 26 28 31 33 33 33 34 36 37 37 34 32 33 34 35 34 32 32 33 33 32 32 31 32 33 34 36 37 36 35 34 38 42 43 42 40 39 37 35 36 35 34 35 36 34 35 36
19 19 21 22 23 24 25 26 26 26 26 26 25 25 24 23 22 21 21 21 21 21 21 21 22 23 24 24 24 23 22 22 23 25 26 26 27 26 25 25 27 30 32 33 34 36 38 38 36 34 34 34 35 36 35 33 34 34 34 33 33 34 35 35 36 38 38 37 36 38 42 45 43 41 41 39 37 37 36 36 36 36 36 37 37
21 22 24 25 27 28 28 28 29 29 29 28 28 28 27 26 25 24 23 23 22 22 22 22 22 23 25 26 26 26 25 24 23 24 26 27 28 28 27 26 26 27 28 30 33 36 37 38 38 36 35 35 36 37 37 35 35 36 36 36 37 37 36 36 37 38 40 40 39 38 41 46 46 43 42 41 39 38 37 37 38 37 37 38 39
24 24 26 28 29 30 30 30 30 30 30 29 29 29 29 28 27 26 26 25 24 23 23 22 22 22 24 25 27 28 29 28 26 24 24 27 29 30 30 29 28 27 26 26 30 34 36 38 39 38 36 37 38 39 38 37 36 36 37 38 39 39 38 38 38 38 40 41 41 39 40 46 49 46 44 43 41 39 38 38 38 38 39 40 41
24 25 26 28 30 30 29 29 29 29 30 29 29 29 29 29 28 28 28 28 27 26 25 25 24 23 23 24 26 27 29 30 30 29 26 26 28 30 32 32 31 29 27 27 29 32 35 38 39 40 40 40 40 40 39 39 38 38 39 39 40 41 41 41 40 39 40 42 42 40 41 46 51 50 46 45 43 40 39 39 40 40 40 41 42
24 25 27 28 29 29 29 29 29 29 29 29 29 29 29 29 29 29 29 29 30 29 29 29 28 27 26 26 26 26 28 30 31 33 31 29 28 30 32 32 32 32 31 30 30 32 35 38 40 42 42 42 43 42 41 41 40 39 40 40 41 42 43 43 42 41 40 42 42 41 42 48 52 52 49 47 45 43 42 41 42 42 42 43 44
23 25 25 27 27 27 28 27 28 28 29 29 29 29 29 29 29 29 30 30 31 31 31 31 32 32 31 31 30 29 29 29 30 33 35 34 32 31 32 33 32 33 34 33 33 33 34 36 40 43 43 43 44 44 43 43 43 42 42 42 42 43 44 44 44 42 41 42 43 42 43 49 54 54 52 50 46 44 44 44 44 44 45 45 45
23 24 25 26 27 27 27 27 27 28 29 29 29 30 30 30 31 32 32 33 33 33 33 33 33 33 34 34 34 34 33 32 30 31 33 36 36 35 34 34 34 34 34 36 36 35 34 35 38 42 44 44 44 44 44 44 44 44 44 43 43 44 45 45 45 44 43 43 44 44 45 49 55 55 54 52 48 45 45 45 46 47 48 48 47
24 25 26 26 27 26 26 26 27 28 29 29 30 31 31 31 32 33 34 35 36 36 35 35 34 34 34 35 35 36 36 36 35 32 32 33 36 37 37 36 37 36 35 36 37 36 35 35 36 39 43 46 45 44 44 45 45 46 46 45 45 45 46 46 46 46 45 44 45 46 47 50 55 57 56 55 50 47 47 48 48 49 49 48 48
24 25 26 26 26 26 26 27 27 28 29 30 31 32 32 33 34 35 36 37 39 39 39 39 38 37 36 35 36 36 36 37 38 38 35 33 34 36 37 37 38 38 37 36 36 37 36 35 35 37 41 46 48 47 45 46 47 47 47 47 46 46 46 47 47 48 47 46 46 47 48 51 55 58 58 57 54 51 50 51 50 51 50 47 48
24 25 26 26 26 27 27 27 28 28 30 31 32 33 34 34 35 36 38 40 41 43 43 43 43 42 41 39 38 37 37 37 38 40 40 37 35 35 36 36 37 38 38 38 36 37 38 38 36 36 40 45 48 49 47 47 49 50 49 48 48 47 47 48 48 48 49 48 47 47 49 50 55 59 60 59 58 55 54 54 52 52 50 47 48
24 25 26 26 27 28 28 28 29 30 31 33 34 34 35 35 36 37 38 40 42 44 45 46 46 45 44 43 42 39 38 37 37 39 41 41 39 37 36 36 36 37 38 39 38 37 39 40 39 37 40 43 44 48 51 51 50 52 51 50 49 49 49 48 49 50 50 50 48 48 49 50 54 59 62 61 60 58 56 54 53 52 49 48 50
23 24 25 26 28 29 30 30 31 32 33 34 35 35 35 36 36 36 38 39 41 43 45 47 47 48 47 46 45 42 39 38 38 39 40 41 42 41 39 36 36 36 37 39 39 38 38 40 42 39 38 42 44 45 49 53 53 53 53 52 51 50 50 50 50 51 51 52 51 50 50 51 53 59 62 62 60 59 58 55 54 53 49 49 53
22 23 25 27 28 30 31 32 32 33 34 34 35 35 36 36 36 37 37 39 40 42 44 45 46 48 49 48 47 44 41 40 39 40 40 41 43 44 41 39 37 36 37 37 38 39 38 39 41 41 38 40 45 46 47 51 54 55 53 52 52 51 51 51 51 52 53 53 53 52 52 52 52 57 61 62 61 60 60 58 55 52 48 50 55
21 23 25 27 29 30 31 32 33 34 35 35 36 37 37 38 38 38 39 40 41 43 44 45 47 48 49 49 47 45 43 42 41 40 40 42 44 44 41 40 39 39 37 36 36 37 38 38 38 41 41 39 44 49 48 48 53 57 56 52 52 53 51 52 52 52 54 53 54 54 53 53 53 55 59 62 62 61 60 59 56 51 48 52 57
22 24 26 28 30 31 32 33 35 36 36 36 37 38 39 39 40 40 40 41 43 44 46 48 50 51 51 49 46 43 42 42 41 39 39 41 43 44 42 40 40 41 40 37 36 37 37 39 38 39 42 41 42 48 48 48 52 57 58 55 53 54 53 53 53 52 53 52 53 55 54 54 54 53 56 61 63 62 61 59 57 52 48 52 57
22 25 27 29 31 32 33 35 35 36 36 37 38 38 39 40 41 41 42 43 44 46 48 50 51 51 50 49 47 45 45 43 40 39 40 41 43 44 43 41 40 41 42 40 39 38 37 39 39 38 41 42 41 45 49 48 51 57 60 58 55 54 55 54 53 51 51 50 51 55 57 55 54 52 55 62 65 64 62 58 57 53 48 51 58
23 25 27 29 31 32 34 34 35 35 36 37 38 39 40 41 42 42 43 44 45 47 48 49 50 50 50 49 49 48 48 46 42 39 40 42 43 44 43 40 40 41 42 42 41 41 39 39 41 39 39 42 42 43 48 48 50 56 60 60 57 55 56 54 52 50 49 49 50 52 55 56 54 53 55 63 68 65 62 59 56 52 47 48 57
24 25 27 29 30 32 33 34 35 35 36 37 38 40 41 42 43 44 44 45 46 47 48 49 50 51 50 50 48 46 44 42 40 38 39 42 43 43 42 40 40 41 41 42 42 42 42 40 40 41 40 43 43 41 47 50 49 54 59 61 60 56 56 54 50 50 51 49 48 49 52 54 54 54 57 63 68 65 62 58 53 50 47 48 57
25 26 27 28 30 32 33 34 34 35 36 37 39 41 43 44 46 47 48 48 49 50 50 51 52 52 51 51 48 43 40 37 35 35 36 39 41 42 42 41 41 41 41 41 42 43 44 42 41 42 42 43 45 41 44 48 49 54 59 60 60 56 55 55 51 50 52 52 49 48 51 54 56 56 59 65 67 64 60 57 53 49 47 53 63
25 26 28 29 30 32 33 33 33 34 35 37 40 41 43 46 48 49 51 52 52 53 54 54 55 55 53 51 48 45 44 40 37 36 35 34 36 39 40 42 41 40 41 42 42 43 43 44 43 43 43 43 45 44 41 45 50 51 52 53 55 56 53 52 51 50 51 54 53 51 52 54 57 59 61 67 67 62 59 58 56 49 46 57 68
25 26 28 29 29 30 31 31 32 33 35 37 39 40 42 45 47 49 51 53 53 54 56 56 57 57 54 52 50 49 48 46 42 39 38 36 35 36 37 40 41 40 42 43 43 43 43 43 43 43 44 43 43 45 42 43 51 51 47 47 45 47 51 50 51 50 51 55 57 56 55 55 59 62 64 67 67 62 60 60 58 51 50 58 68
24 25 27 28 28 29 29 30 32 33 34 36 38 40 42 43 45 47 49 52 53 54 56 57 57 58 56 53 51 48 46 47 45 39 36 37 36 36 37 39 41 42 44 44 43 42 42 43 41 42 44 44 42 45 43 40 46 51 45 42 40 39 41 46 51 53 55 58 59 60 61 58 60 64 66 68 67 63 60 60 60 55 55 57 55
24 25 26 27 27 28 28 30 31 32 34 35 37 39 41 43 44 46 48 50 51 53 55 56 57 58 58 55 52 48 45 44 44 40 36 37 38 37 37 37 40 42 43 43 42 42 42 42 41 41 42 43 43 43 46 41 42 48 45 37 39 36 30 38 49 54 58 58 55 57 60 61 62 64 66 67 67 66 63 61 61 57 59 62 51
23 24 25 26 26 27 28 29 30 32 33 35 38 40 42 44 46 48 50 51 53 54 55 57 59 60 59 56 52 50 48 45 44 42 38 36 38 38 36 37 38 38 41 43 43 42 42 41 41 42 40 40 42 42 47 46 43 49 54 40 30 30 32 41 45 45 53 57 51 48 50 57 64 65 64 65 67 65 63 60 60 58 59 64 56
22 22 23 25 26 27 28 29 31 32 34 35 38 40 43 45 47 50 51 53 56 56 56 56 58 58 58 57 53 50 50 47 43 39 38 36 38 37 36 37 36 35 38 41 42 41 40 41 41 42 41 40 40 40 45 49 45 45 57 58 42 37 41 45 41 33 39 50 52 49 46 48 57 61 59 61 65 61 57 56 56 57 58 61 60
21 21 23 25 26 27 28 30 31 32 34 35 38 40 42 44 46 47 48 48 51 55 56 56 56 55 55 55 53 50 49 46 41 40 41 40 38 37 35 36 36 34 35 38 41 40 40 41 41 41 41 41 39 37 41 47 47 46 48 61 61 53 45 45 45 35 30 37 45 51 52 50 52 55 53 53 56 54 52 52 51 54 58 59 61
21 21 23 25 26 28 29 30 32 33 34 35 38 40 42 44 45 47 47 47 47 52 55 56 56 55 54 54 52 50 48 44 42 42 43 42 37 35 35 36 36 33 33 35 38 40 41 42 41 40 42 40 37 35 38 41 44 48 46 49 60 60 50 48 54 50 41 37 37 44 51 55 56 55 54 52 49 48 49 49 50 53 57 58 59
20 21 23 25 27 29 30 31 32 33 35 36 38 40 41 43 45 46 48 48 49 51 53 55 55 55 54 54 52 51 49 46 45 44 44 43 38 34 35 36 36 34 32 32 33 36 41 42 39 41 42 40 36 34 37 39 42 46 48 44 49 56 52 49 53 52 49 43 38 42 45 47 52 53 56 58 53 51 50 49 52 56 57 59 57
20 22 24 26 28 30 31 32 33 34 35 36 38 40 41 43 44 46 47 49 50 51 54 55 55 54 54 54 53 52 51 49 47 45 45 44 38 35 36 37 37 34 32 30 30 33 39 42 41 42 41 38 38 36 36 38 40 44 48 47 43 49 48 44 49 49 47 46 43 47 49 47 49 49 51 57 57 54 53 53 57 61 61 61 55
20 22 24 27 29 31 33 33 34 35 36 37 38 39 41 42 43 45 46 47 48 50 53 54 55 54 53 54 53 52 51 50 48 45 43 42 40 37 36 37 38 36 32 30 29 31 34 40 44 43 40 38 38 37 38 38 37 42 48 48 42 48 53 47 52 54 51 50 46 46 51 50 48 49 50 52 51 51 52 52 54 59 58 54 54
Wind_Direction
17 18 18 20 19 18 20 26 28 20 11 10 17 12 8 3 354 343 336 333 329 329 327 327 321 308 300 294 292 292 294 296 292 286 275 263 257 253 249 246 242 239 239 241 242 242 242 245 246 248 252 258 262 262 258 254 250 241 232 231 233 237 236 233 235 232 231 234 225 234 241 229 234 232 222 218 205 201 198 192 190 186 181 177 176
23 22 19 20 18 19 20 26 33 30 22 9 12 10 8 5 356 340 324 328 324 324 326 325 323 318 311 304 298 296 298 302 304 305 299 286 276 268 260 254 250 246 245 245 245 244 243 243 244 245 247 252 256 259 258 252 250 248 240 233 230 233 236 233 234 234 232 230 229 235 238 233 231 223 211 203 195 197 195 192 191 185 180 178 176
27 30 22 20 17 18 23 27 30 28 25 10 7 4 5 4 359 342 317 317 314 315 318 317 316 315 315 312 310 307 308 310 312 315 315 309 303 296 285 271 261 253 251 250 249 246 245 245 245 245 245 248 252 256 258 254 248 248 246 237 231 230 232 234 235 236 235 231 230 231 231 231 223 214 207 199 195 196 193 191 190 184 180 178 178
25 38 25 18 17 15 19 29 33 23 15 6 359 356 356 357 358 346 328 317 310 312 308 302 298 298 301 305 309 308 309 312 314 315 315 312 307 306 303 294 283 268 258 254 253 251 250 248 247 247 247 249 252 255 258 256 249 245 244 238 233 232 233 233 234 237 236 233 227 224 226 224 218 214 206 199 197 194 191 190 189 185 180 178 177
20 40 32 22 21 17 14 23 35 26 9 356 346 341 340 344 348 343 335 322 314 313 306 298 290 288 289 289 292 294 300 305 307 308 308 307 306 307 306 301 295 284 274 263 255 254 254 252 250 249 249 250 252 255 257 257 252 245 241 239 236 234 235 232 231 237 237 233 226 220 222 218 216 214 202 199 197 192 189 190 188 184 183 179 177
9 30 40 32 20 15 13 18 28 29 16 351 331 319 316 326 333 333 332 324 318 313 307 303 299 295 290 288 287 287 290 292 294 298 301 303 304 305 304 302 297 289 287 282 270 263 259 257 254 253 252 252 253 254 256 257 254 247 242 239 237 235 234 232 230 234 235 233 226 217 220 218 217 214 204 202 198 192 191 190 188 186 186 184 180
348 356 19 20 2 357 359 9 16 7 329 308 303 300 294 301 308 313 316 315 313 309 308 304 301 299 292 291 291 289 286 285 287 292 294 295 298 298 300 300 298 293 291 290 284 278 269 260 255 253 253 255 255 255 256 257 254 248 245 240 236 235 234 232 231 231 232 233 227 216 218 221 219 216 207 204 199 194 194 192 190 189 188 188 186
333 342 344 343 343 344 343 346 341 289 258 259 262 270 272 282 288 295 297 296 297 300 307 303 301 300 294 292 291 289 286 285 285 286 288 288 289 289 292 294 294 293 290 289 287 284 278 269 263 257 254 255 256 257 257 258 257 250 246 244 237 234 233 232 231 232 231 231 228 217 217 222 222 218 210 206 200 197 197 196 194 192 190 192 191
347 357 346 342 344 337 327 321 305 272 255 259 260 259 258 262 270 280 286 291 296 296 298 297 297 298 294 291 290 289 286 284 284 285 286 285 284 283 284 287 290 290 286 283 280 279 276 273 270 265 260 258 256 256 256 256 256 252 247 245 242 235 232 232 231 232 229 227 227 219 216 222 223 219 213 207 202 199 199 200 197 194 191 192 193
12 5 356 357 359 350 330 318 305 295 270 265 265 263 262 258 258 261 267 280 293 290 289 290 291 292 291 289 288 288 286 283 283 286 286 285 283 281 280 280 285 286 284 281 277 275 272 268 265 264 263 260 257 254 255 253 252 252 248 245 244 238 231 230 230 230 226 224 225 218 215 221 221 218 214 210 205 199 201 203 199 197 194 191 191
50 22 10 6 6 3 350 337 322 314 300 291 283 277 274 267 261 258 256 260 268 275 279 283 285 286 285 287 287 287 287 285 284 284 283 282 279 277 276 276 278 280 281 280 278 276 272 265 260 258 260 259 257 254 253 253 251 251 249 246 244 239 231 229 229 228 224 221 222 220 218 220 220 217 214 213 208 201 204 205 201 200 196 192 191
50 39 28 12 7 6 3 358 348 339 323 309 298 291 286 282 275 267 259 253 254 262 267 271 276 274 274 279 281 281 282 282 283 283 282 280 280 281 277 274 272 272 275 275 274 274 271 266 260 256 256 256 256 254 252 251 251 251 250 247 245 240 231 228 229 226 224 222 224 225 221 218 219 216 214 214 210 205 206 206 204 201 196 195 193
49 46 45 35 33 28 25 21 15 10 357 343 323 309 299 293 288 281 272 260 254 257 263 267 271 269 268 271 273 273 274 277 280 281 283 283 283 283 279 276 274 271 270 271 270 269 269 266 262 258 255 255 254 253 252 250 251 251 250 247 244 241 233 228 228 227 225 224 227 227 219 216 219 216 213 213 211 209 208 206 205 201 198 198 194
57 55 56 50 49 45 42 40 35 31 23 16 2 348 330 315 305 296 287 277 265 260 261 264 267 268 269 271 273 272 272 274 274 273 276 279 279 277 276 274 274 273 271 269 267 265 265 265 263 260 256 255 254 253 251 251 251 251 250 248 243 240 235 230 230 229 226 225 226 225 218 216 218 215 214 214 213 213 210 208 205 201 200 199 197
60 57 56 54 52 49 47 45 42 39 34 30 24 18 9 357 341 324 309 296 287 276 271 268 267 267 267 268 271 272 274 275 273 271 271 274 278 277 275 273 271 271 271 269 265 262 261 262 262 260 258 255 254 253 251 251 251 250 249 248 243 237 234 231 232 232 227 224 223 222 219 217 217 215 214 214 216 216 212 210 206 200 200 199 196
59 55 52 50 48 46 45 43 41 39 35 32 28 25 21 17 11 1 348 329 313 299 288 281 278 275 273 270 268 269 271 272 273 274 273 274 277 277 276 276 275 274 271 269 267 264 261 262 262 259 258 257 256 255 253 251 250 250 248 246 243 236 233 232 233 233 228 223 220 221 220 218 217 215 214 214 217 219 216 211 206 200 199 199 195
56 51 47 44 41 38 36 34 33 32 30 27 24 21 19 16 14 10 5 357 347 332 316 301 291 285 282 279 274 271 269 269 269 270 272 272 274 275 274 275 276 275 272 271 269 265 262 263 264 261 258 257 257 256 255 254 251 250 249 247 243 237 233 233 233 232 229 224 220 222 222 219 217 215 215 214 215 218 218 212 207 201 200 199 195
50 44 42 39 34 32 27 24 22 19 18 17 15 12 10 8 5 3 1 358 354 350 343 332 316 301 292 287 282 277 273 270 268 267 267 267 268 270 271 272 272 271 271 270 269 265 263 264 265 264 260 258 257 257 256 255 254 251 250 249 246 240 236 235 235 232 229 227 223 222 223 221 218 216 215 213 214 216 217 212 208 202 199 200 196
44 40 37 33 29 26 21 18 14 11 8 5 3 360 357 355 353 351 350 348 346 345 342 340 335 325 311 298 290 284 279 274 271 269 267 265 265 265 266 268 268 268 267 267 268 266 265 265 265 263 261 260 258 258 257 255 255 253 249 248 248 245 240 237 236 234 230 227 225 223 222 221 219 218 215 213 214 217 215 211 210 204 200 200 198
40 36 32 28 24 19 15 13 8 6 2 359 355 350 347 343 340 337 336 334 333 333 332 331 330 329 325 316 304 293 287 281 276 274 272 271 268 265 264 264 265 266 265 264 265 265 265 263 263 262 260 260 260 259 258 255 254 252 250 247 247 247 244 240 237 235 231 228 226 223 221 221 221 219 216 213 214 218 215 210 210 208 203 202 202
35 30 27 22 18 13 10 7 3 2 358 355 350 345 341 335 331 327 324 321 319 319 319 319 319 320 321 320 317 309 299 291 284 279 276 275 273 270 267 264 264 263 263 262 261 262 264 263 262 261 260 259 259 260 259 255 252 251 250 247 246 245 244 243 240 237 233 229 227 225 221 220 220 220 217 214 214 218 216 213 211 209 207 204 204
28 24 21 17 14 10 6 3 1 358 355 352 349 345 341 336 331 325 320 315 311 309 308 309 310 311 311 313 314 314 310 302 295 288 281 276 274 273 271 268 266 265 264 263 260 259 261 262 262 260 259 259 259 259 258 255 251 249 248 248 246 245 244 244 242 239 235 231 228 226 223 220 220 220 218 214 214 217 215 215 214 211 209 205 206
25 21 18 16 13 10 6 4 1 357 355 353 350 349 346 343 340 334 330 324 318 312 306 303 302 302 303 304 306 307 308 307 302 297 289 281 275 272 272 271 269 268 266 266 264 260 258 260 260 258 257 258 259 258 257 255 251 248 247 247 247 245 244 243 242 241 237 233 230 227 224 221 219 219 218 216 215 216 214 214 216 214 211 207 207
26 22 19 16 13 11 8 5 2 359 356 354 353 352 351 350 348 345 342 337 332 326 319 312 305 300 298 298 299 300 302 304 303 300 295 290 283 275 272 273 273 270 266 269 271 265 260 257 257 256 255 256 257 257 256 254 251 248 246 245 246 246 244 242 241 240 238 235 232 229 225 219 218 218 218 218 216 216 216 216 217 215 213 209 206
25 21 18 15 12 10 8 5 2 359 357 355 355 354 354 353 352 351 349 346 342 338 333 327 321 314 307 302 298 296 295 298 300 300 297 294 291 286 280 275 275 273 267 271 275 272 265 258 257 256 254 254 255 255 255 253 252 249 246 244 244 245 245 243 241 239 238 237 232 229 225 218 218 218 216 218 216 215 217 216 217 216 214 212 208
23 20 17 13 12 9 7 4 1 359 358 356 356 355 354 354 353 352 350 347 345 342 339 336 333 328 322 316 309 302 296 293 295 297 298 296 293 291 289 283 277 274 273 274 276 279 274 263 258 256 256 255 254 255 254 253 253 251 248 244 243 244 244 244 242 239 237 237 233 228 224 217 217 219 216 217 217 215 218 218 218 217 215 214 210
23 20 16 13 10 9 6 4 2 1 359 358 357 356 355 355 354 352 350 348 346 343 340 337 335 333 330 326 320 315 308 301 296 294 295 296 295 292 291 290 284 277 275 275 274 277 279 273 265 260 257 256 255 254 254 252 252 251 249 245 243 243 243 244 244 241 237 236 234 228 224 217 216 219 218 218 217 216 219 221 220 218 216 215 212
22 18 14 12 9 8 6 4 3 1 359 358 357 356 355 355 353 352 350 349 347 344 342 339 335 332 330 328 325 320 316 312 306 299 295 295 295 294 291 290 289 284 278 276 275 274 276 279 275 267 260 257 256 255 254 252 250 249 248 246 243 242 242 243 244 243 239 236 234 229 225 219 215 217 219 220 218 216 220 222 222 220 217 214 212
18 15 11 9 7 5 4 2 1 359 357 356 355 355 354 353 352 350 349 348 346 344 342 339 336 332 329 327 325 322 319 315 312 309 303 297 295 294 292 290 289 288 284 277 277 276 275 277 278 274 267 260 256 255 255 252 249 247 246 245 243 241 241 241 242 244 241 237 234 230 226 222 217 217 220 223 220 217 220 222 222 221 219 215 211
15 12 9 7 4 2 0 359 358 357 355 355 354 354 353 351 350 349 348 347 345 343 341 339 337 334 330 326 323 321 318 315 313 311 309 304 298 295 293 291 289 289 288 282 278 276 275 275 277 278 275 266 257 255 256 253 248 246 245 245 243 241 240 240 241 243 243 239 235 232 229 225 219 217 220 223 223 222 222 223 222 221 220 216 210
13 11 9 6 2 359 358 356 356 355 354 354 353 353 351 350 349 348 347 346 344 342 341 339 337 334 332 329 324 320 317 314 311 309 309 307 303 299 295 292 290 288 288 287 281 277 274 273 274 275 274 269 259 255 255 254 249 246 245 245 244 243 241 240 240 241 242 241 237 233 231 227 221 219 221 224 226 226 224 224 223 222 222 217 212
11 9 6 2 359 357 355 355 354 353 353 352 352 351 349 347 346 345 344 343 342 341 339 337 335 333 331 329 325 321 317 314 310 307 306 307 304 302 299 295 292 290 289 288 285 280 275 272 272 272 272 270 265 260 256 253 250 247 246 246 244 244 243 241 240 241 241 241 239 235 233 229 223 221 222 225 227 226 224 225 225 223 222 221 218
10 7 3 0 359 356 355 355 354 353 352 351 350 348 346 345 343 342 341 340 340 339 337 336 334 332 329 327 324 321 317 314 311 307 305 305 303 301 300 297 295 293 290 290 288 284 278 273 270 271 275 274 271 266 259 252 249 248 246 246 245 244 244 243 241 240 240 240 238 236 234 232 226 223 224 226 228 226 224 226 228 224 221 221 219
8 5 2 0 358 356 354 353 352 351 350 349 347 345 343 342 340 339 338 337 337 336 334 333 332 330 328 325 323 321 317 314 311 308 305 303 301 300 299 297 298 297 293 290 291 288 283 277 271 269 275 278 274 269 265 258 253 250 246 245 245 244 244 243 242 241 240 240 239 237 235 234 229 225 225 225 226 226 226 227 228 226 222 220 215
7 4 1 359 357 355 353 351 350 347 346 345 343 342 340 339 338 337 337 336 335 333 332 331 330 329 327 325 323 320 316 313 311 309 305 302 301 301 298 296 298 300 297 292 292 292 287 282 277 271 271 276 276 271 268 264 258 252 246 243 243 243 243 243 243 241 239 238 238 238 235 234 231 227 226 225 224 224 224 225 226 225 221 218 212
6 2 359 358 356 354 351 347 344 342 342 341 340 339 338 337 337 337 337 335 334 333 332 331 330 329 326 323 321 317 314 311 310 308 304 301 301 300 298 296 296 298 299 296 294 294 293 288 282 275 271 271 275 272 268 266 260 252 247 243 241 242 243 243 243 240 239 237 235 236 237 235 232 229 227 224 222 221 222 223 225 224 218 215 210
3 1 359 357 355 351 347 343 342 342 340 339 338 337 337 337 337 336 335 334 333 333 332 331 330 328 324 320 316 311 308 307 308 307 303 299 299 299 297 295 294 296 297 297 295 295 297 295 288 281 274 270 272 272 268 265 259 252 248 244 240 241 243 243 243 241 238 237 233 232 235 236 234 231 228 223 220 219 220 222 224 224 220 212 205
1 0 359 356 352 348 345 344 343 342 341 339 338 337 337 336 335 334 334 334 333 333 332 331 330 328 325 320 314 309 305 302 301 303 302 299 297 297 296 294 293 293 294 294 295 295 296 298 295 288 279 272 270 272 268 262 257 250 246 243 239 238 241 242 242 241 238 237 235 230 230 233 233 230 227 222 219 219 220 221 223 223 222 215 201
359 358 357 353 349 347 345 345 344 342 341 339 338 337 337 336 334 334 333 333 332 331 332 332 331 331 328 323 319 315 312 306 300 299 301 300 297 295 293 292 291 291 291 291 291 295 296 297 298 294 286 272 265 273 272 262 257 249 242 242 240 236 239 241 239 238 237 237 236 231 229 231 231 228 225 220 218 219 219 220 222 220 222 220 205
356 355 355 352 350 348 346 345 343 342 342 341 341 340 338 337 336 335 334 334 333 332 333 335 334 334 331 328 325 320 317 311 302 298 300 301 298 295 292 290 290 288 288 288 289 293 295 296 298 298 295 280 265 267 269 261 255 250 242 241 239 235 237 239 236 234 236 238 236 230 228 229 229 227 223 219 217 218 218 219 222 218 219 217 205
355 354 353 352 352 350 347 345 344 345 345 344 343 341 340 339 337 337 335 334 334 333 334 336 337 336 334 330 326 320 314 308 299 292 291 294 296 295 292 289 288 287 286 286 287 291 293 295 298 298 299 294 277 265 267 264 253 246 239 235 235 234 235 237 235 232 234 235 234 232 228 226 227 226 222 218 216 216 216 218 220 217 217 209 198
354 353 352 353 352 350 348 346 346 347 346 344 342 340 340 339 337 336 335 333 334 335 335 337 337 336 334 330 325 320 315 311 305 295 286 284 290 294 295 293 289 287 286 285 286 288 290 292 296 298 298 300 287 267 267 268 250 240 234 227 224 228 231 233 233 233 233 231 226 227 229 226 224 223 221 217 214 214 214 217 218 216 216 206 194
352 352 352 353 351 350 347 346 346 345 344 342 341 339 338 337 336 335 335 333 333 334 334 336 337 335 333 329 325 320 315 313 312 306 292 284 286 291 295 297 293 288 286 285 285 285 287 291 292 296 298 300 293 268 260 266 252 236 227 220 214 214 220 224 226 227 228 228 222 219 221 223 221 219 219 216 213 214 215 216 216 213 214 211 200
350 350 350 351 349 348 346 345 344 343 342 341 339 338 336 334 334 333 334 333 333 333 333 334 335 334 332 330 326 321 316 313 311 308 300 288 285 289 291 295 295 289 287 285 284 284 285 289 289 293 296 299 297 273 255 263 261 238 218 211 211 208 208 211 214 217 219 219 215 210 210 214 217 217 216 214 213 214 215 215 213 211 211 211 211
349 348 347 348 347 346 345 344 343 342 341 340 338 337 335 334 334 333 333 334 334 334 334 334 334 334 332 330 326 322 318 314 311 309 305 294 286 287 286 292 296 292 289 285 283 284 282 285 288 290 292 295 297 283 262 261 265 246 224 212 204 201 206 205 202 207 211 209 206 203 203 206 209 212 212 211 212 212 210 209 208 210 211 208 210
344 343 344 345 344 343 344 343 341 341 340 339 338 336 336 336 335 335 335 335 335 335 335 334 333 333 331 328 325 322 319 317 315 311 307 300 292 287 284 289 294 293 292 288 284 282 280 283 286 286 288 294 293 285 272 262 264 260 235 222 217 210 207 201 192 191 200 206 209 209 210 207 205 207 208 208 207 207 206 206 207 210 212 209 206
339 340 342 342 342 341 342 341 340 340 339 338 337 336 336 336 335 336 335 335 333 332 334 333 332 331 328 326 323 321 319 318 314 307 304 304 297 288 284 288 291 291 294 291 285 280 280 281 281 282 286 293 290 279 275 266 265 274 250 225 222 219 210 200 194 186 182 195 207 212 216 214 210 209 211 211 207 206 206 206 209 210 211 207 199
336 338 340 341 341 340 340 340 339 339 338 338 337 337 336 335 335 335 334 333 331 331 332 332 332 331 328 325 322 319 318 314 310 306 305 307 301 290 286 288 286 287 292 291 285 280 280 278 275 280 285 289 288 275 272 270 266 275 267 233 218 215 214 207 201 196 186 181 188 200 209 212 214 215 216 218 213 207 207 207 210 210 206 200 190
335 337 340 341 340 340 339 339 338 338 338 338 337 336 336 335 335 334 333 332 331 330 331 331 331 331 329 325 321 318 316 311 308 306 304 306 303 293 285 283 281 283 290 287 283 282 278 273 273 280 283 284 287 275 267 269 265 269 271 253 223 210 210 208 200 197 189 179 176 184 192 199 207 213 215 219 218 213 211 207 207 208 198 186 181
336 338 340 341 340 340 339 338 338 337 338 337 336 336 335 334 334 334 332 332 331 331 331 331 331 330 328 325 321 318 315 312 308 305 304 305 304 295 284 280 279 281 287 283 280 284 276 269 275 280 278 283 289 278 264 265 267 267 268 263 240 212 206 201 193 192 188 182 181 181 181 184 191 198 203 208 210 209 209 199 192 194 189 176 174
336 338 339 340 340 339 338 337 338 338 337 337 335 335 335 334 333 333 332 331 331 331 330 330 330 328 325 324 321 318 315 312 309 306 304 304 302 297 286 280 279 279 283 281 279 284 276 269 273 275 276 283 289 281 266 262 268 270 264 265 255 222 207 200 193 191 189 186 183 179 180 183 186 188 192 195 194 194 196 191 181 178 178 173 172